SCP
0 0 0 0 0 0 0 0 0 1 1 1 1 1 1 1 1 2 1 1 1 1 1 1 1 1 1 1 1 1 0 0 -0 0 1 1 1 1 1 1 0 0 0
0 0 0 -0 0 0 0 0 1 0 1 1 0 0 0 0 1 1 1 0 1 1 1 1 1 1 1 1 1 1 1 1 0 0 1 1 0 1 0 0 0 0 0
0 0 0 0 0 0 -0 0 0 0 0 1 0 0 0 0 0 0 0 0 0 0 0 0 0 0 0 0 1 1 1 0 1 1 1 1 1 0 0 0 0 0 0
0 0 0 0 0 0 -0 0 0 1 0 0 1 0 0 0 0 0 0 0 0 0 0 0 0 0 0 0 0 0 1 1 1 1 1 1 0 0 0 0 0 0 0
0 0 0 0 0 0 0 0 -0 -0 0 0 0 0 0 0 0 0 0 0 0 0 0 0 0 0 0 0 0 0 0 0 0 1 0 0 0 0 0 0 0 0 0
0 0 0 0 0 0 0 0 0 0 0 0 1 0 1 0 0 0 0 0 0 0 0 0 0 0 0 0 0 0 0 0 0 1 0 0 0 0 0 0 0 -0 0
0 0 0 0 0 0 0 0 0 0 0 0 1 1 1 1 0 0 0 0 0 0 0 0 0 0 0 0 0 0 0 0 -0 0 0 0 0 0 0 0 0 0 0
-0 0 0 0 0 0 0 0 0 0 0 0 0 1 1 1 0 0 0 1 1 0 0 0 0 0 0 0 0 0 0 0 0 0 0 0 0 -0 0 0 -0 0 0
0 0 0 0 0 0 0 0 0 0 0 0 0 0 1 1 0 0 0 0 1 0 0 0 0 0 0 0 -0 0 0 0 0 0 0 0 -0 -0 0 0 0 0 0
0 0 0 0 0 0 0 0 0 0 0 0 0 0 0 1 0 0 0 0 1 0 0 0 0 0 0 0 0 0 0 0 0 0 0 0 -0 0 -0 -0 0 0 0
0 0 0 0 0 0 0 0 0 0 0 0 0 0 0 0 0 0 0 0 0 0 0 0 0 0 0 0 0 0 0 0 0 0 -0 -0 0 0 -0 0 0 0 0
0 0 0 0 0 0 0 0 0 0 0 0 0 0 0 0 0 0 0 0 0 0 0 0 0 0 0 0 0 0 -0 0 0 -0 -0 0 0 0 0 0 0 0 0
0 0 0 0 0 0 0 0 0 0 0 0 0 0 0 0 0 0 0 0 0 0 0 0 0 0 0 0 0 -0 0 0 0 -0 -0 0 0 0 0 0 0 0 0
-0 -0 0 0 0 0 0 0 0 0 0 0 0 0 0 0 0 0 0 0 0 0 0 0 0 0 0 0 0 0 0 0 -0 -0 0 0 0 0 0 0 0 0 0
0 0 0 0 0 0 0 0 0 0 0 0 0 0 0 0 0 0 0 0 0 0 0 0 0 0 0 0 0 0 0 0 -0 0 0 0 0 0 0 0 0 0 0
0 0 0 0 0 0 0 0 0 0 0 0 0 0 0 0 0 0 0 0 0 0 0 0 0 0 0 0 0 0 0 0 0 0 0 0 0 0 0 0 0 0 0
0 0 0 0 0 0 0 0 0 0 0 0 0 0 0 0 0 0 0 0 0 0 0 0 0 0 0 0 0 0 0 0 0 0 0 0 0 0 0 0 0 0 0
0 0 0 0 0 0 0 0 0 0 0 0 0 0 0 0 0 0 0 0 0 0 0 0 0 0 0 0 0 0 0 0 0 0 0 0 0 0 0 0 0 0 0
0 0 0 0 0 0 0 0 0 0 0 0 0 0 0 0 0 0 0 0 0 0 0 0 0 0 0 0 0 0 0 0 0 0 0 0 0 0 0 0 0 0 0
0 0 -0 0 0 0 0 -0 0 0 0 0 0 0 0 0 0 0 0 0 0 0 0 0 0 0 0 0 0 0 0 0 0 0 0 0 0 0 0 0 0 0 0
0 0 0 0 0 0 -0 -0 0 0 0 0 0 0 0 0 0 0 -0 0 0 -0 -0 -0 0 0 0 0 0 0 0 0 0 0 0 0 0 0 0 0 0 0 0
0 0 0 0 0 0 0 0 0 0 0 0 0 0 0 0 0 0 0 0 0 -0 0 0 0 0 0 0 0 0 0 0 0 0 0 0 0 0 0 0 0 0 0
0 0 0 0 0 0 0 0 0 0 0 0 0 0 0 0 -0 -0 -0 0 0 0 0 0 0 0 0 0 0 0 0 0 0 0 0 0 0 0 0 0 0 0 0
0 0 0 0 0 0 0 0 0 0 0 0 0 0 0 0 0 0 0 0 0 0 0 0 0 0 0 0 0 0 0 0 0 0 0 0 0 0 0 0 0 0 0
0 0 0 0 0 0 0 0 0 0 0 0 0 0 0 0 0 0 0 0 0 0 0 0 0 0 0 0 0 0 0 0 0 0 0 0 0 0 0 0 0 0 0
0 0 0 0 0 0 0 0 0 0 0 0 -0 0 0 0 0 0 0 0 0 0 0 0 0 0 0 0 0 0 0 0 0 0 0 0 0 0 0 0 -0 0 -0
Wind_Speed_500mb
36 36 38 41 40 41 47 42 32 29 24 18 29 33 35 41 45 47 48 48 48 49 50 52 53 54 59 62 63 58 55 45 58 81 64 73 61 67 66 58 60 45 40
47 35 43 50 43 50 53 49 46 42 34 23 26 29 27 31 36 39 40 40 40 39 41 42 42 40 44 45 45 50 52 51 56 72 61 66 60 58 56 53 46 35 39
23 41 47 41 40 38 46 50 53 51 46 38 36 35 31 29 29 29 31 33 32 31 31 32 33 36 41 36 37 39 43 47 54 60 56 54 56 51 52 50 41 36 40
19 14 34 59 69 56 73 80 77 63 59 54 51 48 45 38 33 30 28 26 23 21 20 26 29 31 31 32 34 36 39 41 45 48 51 51 52 50 50 46 35 31 40
37 30 23 20 43 69 81 81 83 83 84 73 69 65 61 58 50 43 38 34 30 25 19 17 18 21 24 29 38 43 47 43 40 48 47 57 53 53 47 46 38 41 37
59 53 48 44 39 39 42 54 71 75 77 75 78 81 79 74 69 60 51 45 40 38 34 26 25 27 29 34 35 43 48 51 45 41 54 59 53 53 49 50 37 36 36
62 64 61 57 57 58 54 52 51 55 66 75 77 82 88 88 81 76 67 61 55 49 41 39 34 35 38 38 39 38 47 54 53 50 58 64 63 62 58 45 42 38 36
59 59 57 59 62 63 64 66 62 58 57 61 72 80 86 89 92 86 81 73 68 62 56 49 44 41 45 42 46 46 44 54 55 46 55 51 52 61 43 33 43 41 42
65 65 63 61 61 59 65 74 79 73 72 69 65 64 77 85 89 92 89 83 81 74 67 62 55 48 49 45 46 50 51 53 48 47 52 56 61 51 44 46 50 40 38
78 70 63 62 62 62 61 60 63 64 73 66 70 74 70 65 70 80 82 83 78 80 74 72 67 58 54 50 46 52 57 55 45 48 42 55 52 52 52 53 41 37 30
66 64 58 57 57 57 59 60 59 59 63 64 63 68 81 79 72 65 62 68 66 71 69 68 73 67 60 55 52 57 57 58 52 45 51 66 66 56 58 55 46 36 32
66 65 65 62 64 62 62 62 64 68 67 69 70 72 67 82 83 79 76 72 70 70 65 66 70 69 64 60 62 61 58 57 54 47 53 72 73 66 66 57 42 43 36
64 66 65 63 63 62 62 63 63 68 76 79 81 79 78 72 68 91 92 87 81 76 65 67 76 67 62 67 70 64 60 59 53 54 60 75 60 56 47 44 42 41 38
78 81 80 79 81 81 80 79 80 76 72 73 81 85 85 82 84 77 80 94 86 77 70 66 68 65 65 68 71 66 59 58 51 57 54 54 47 47 39 43 43 40 33
77 79 80 80 83 84 85 85 86 87 83 80 83 80 79 84 86 85 83 84 94 87 77 74 76 72 70 70 73 66 55 53 47 50 50 41 46 38 42 37 36 35 31
80 80 81 84 87 87 88 89 93 92 84 82 90 81 78 83 76 77 83 86 70 64 74 71 65 73 74 71 57 57 54 45 43 44 50 41 46 46 37 36 34 34 23
72 79 86 86 85 85 83 83 83 84 85 86 80 80 87 63 74 67 67 58 51 55 72 68 61 75 80 62 55 55 54 44 44 41 51 51 51 39 39 38 33 28 22
74 80 83 92 85 84 81 78 72 61 78 88 83 83 80 85 67 69 59 52 67 66 61 65 72 80 67 51 52 58 51 42 45 49 56 46 37 39 37 33 31 29 26
78 82 77 73 74 73 71 70 70 74 82 68 77 71 82 85 90 58 67 68 68 67 66 67 65 62 55 51 58 55 47 49 50 56 50 41 36 36 32 30 33 28 33
61 55 48 41 35 30 31 43 53 59 63 65 67 66 67 77 81 65 73 71 66 65 66 66 56 52 53 57 49 47 50 48 54 56 44 39 38 34 31 28 31 34 30
41 39 18 12 9 6 5 7 41 54 56 67 70 56 77 83 86 95 82 71 65 62 55 52 51 54 58 52 50 60 48 41 56 49 42 40 42 38 31 28 27 29 28
29 23 20 17 15 18 25 37 51 51 54 56 56 66 79 69 77 68 70 60 54 47 47 48 49 51 49 56 47 50 39 42 46 44 43 47 41 33 31 27 22 23 26
26 26 21 34 34 31 32 39 44 47 48 51 60 73 72 59 54 57 58 50 51 53 47 42 45 52 57 40 42 45 58 53 54 53 45 41 39 35 26 25 29 28 30
30 28 32 37 41 37 40 42 44 46 51 60 68 71 56 56 60 56 53 55 47 40 46 53 59 51 54 40 48 49 49 51 53 44 42 42 36 34 35 37 34 34 34
24 29 32 43 46 48 53 52 46 44 52 60 64 54 49 50 52 50 47 49 49 50 53 48 59 50 41 54 50 49 52 52 48 48 40 37 37 42 42 38 35 32 30
31 32 37 40 46 48 50 54 61 60 60 59 57 51 48 50 48 49 55 63 57 56 54 52 52 55 58 57 55 54 50 47 48 46 42 39 45 47 43 36 33 28 24
Wind_Direction_500mb
290 243 217 202 196 207 210 206 211 219 221 236 240 240 236 234 234 236 239 241 241 242 243 244 246 248 252 256 258 267 265 280 278 269 276 271 273 281 279 282 273 260 249
270 258 240 234 233 218 217 217 215 216 222 221 229 231 241 242 233 234 238 239 240 241 245 247 250 254 259 262 262 262 264 256 256 266 272 274 272 279 278 278 266 238 242
295 257 252 254 245 266 259 253 239 231 228 228 227 230 232 234 235 232 233 236 240 242 244 249 254 257 259 259 260 259 259 264 264 263 276 279 276 280 280 275 251 241 240
312 286 253 243 242 254 266 275 259 254 245 237 238 239 236 232 233 236 233 225 226 234 252 254 254 258 260 260 260 261 261 265 267 261 268 272 271 274 277 266 251 256 255
301 293 282 263 238 234 230 256 257 254 252 246 244 243 244 242 237 235 238 237 236 239 255 277 273 273 280 280 271 271 271 272 269 265 264 267 271 262 272 273 251 264 254
291 285 279 271 259 251 246 247 247 247 247 243 240 242 242 243 242 240 238 239 243 249 255 270 284 294 301 287 287 272 268 274 272 265 262 263 273 261 269 267 261 260 247
285 280 276 272 265 261 261 259 251 247 247 246 241 240 240 240 242 242 240 242 243 246 255 262 275 293 301 305 296 291 269 263 267 272 260 266 262 267 277 250 252 264 248
281 277 277 272 266 262 258 254 256 256 254 253 247 240 238 240 239 239 242 242 245 247 250 258 265 283 295 302 304 292 289 269 262 260 261 262 270 286 263 232 253 259 246
283 281 279 272 267 263 260 256 252 253 254 254 254 252 245 240 240 236 237 240 243 247 249 253 260 269 287 295 300 298 297 285 265 258 253 258 276 259 229 237 253 228 231
278 273 271 267 266 263 260 257 255 253 251 249 249 250 250 249 244 239 236 236 238 243 249 252 256 262 276 285 291 296 298 299 285 265 246 262 260 257 246 247 239 227 226
271 271 269 266 260 255 257 257 255 250 247 244 243 244 247 247 244 238 234 231 229 238 240 245 253 259 267 276 279 285 294 300 286 275 260 262 263 253 245 249 222 225 225
271 270 269 265 261 261 260 259 253 247 244 243 241 240 239 244 243 240 236 234 237 239 239 245 253 260 263 267 269 277 289 293 282 269 261 265 260 249 241 237 215 224 226
274 272 269 266 262 259 257 254 251 245 241 240 237 235 232 232 235 239 238 235 236 241 240 246 253 259 260 260 264 271 281 286 278 265 253 252 258 228 223 213 215 221 224
275 276 275 270 269 267 263 255 250 242 238 239 233 231 230 231 231 232 238 239 240 241 243 246 248 245 252 256 261 267 275 284 269 259 257 252 240 201 202 212 216 217 215
283 280 276 272 269 267 264 259 251 248 240 233 232 232 230 227 226 228 228 234 240 238 235 234 232 234 241 250 255 264 271 277 258 250 239 220 199 200 203 209 211 202 195
280 277 274 272 270 264 260 257 258 256 253 247 235 230 231 233 234 231 229 233 244 239 226 218 222 229 236 245 249 262 269 262 250 230 222 199 204 197 198 193 189 179 170
279 277 276 271 266 259 254 249 248 246 249 249 242 233 227 227 225 224 225 227 220 216 218 214 216 228 237 238 245 256 267 248 236 218 206 203 191 192 185 178 175 171 165
284 281 278 276 270 264 256 249 242 236 230 233 234 230 229 219 220 218 213 208 208 211 212 211 219 227 230 232 242 252 261 234 219 210 205 187 178 177 172 176 175 174 175
294 292 290 288 281 275 269 258 247 238 230 225 228 228 224 218 213 210 206 207 205 206 208 215 220 225 227 234 242 250 231 228 212 204 183 177 171 167 168 177 181 175 183
304 308 311 305 303 295 276 255 237 228 219 210 213 219 208 206 205 190 196 203 206 213 215 218 218 219 225 229 233 223 219 210 205 185 174 168 167 165 165 167 176 180 178
325 340 15 9 3 346 354 258 201 191 184 191 203 205 187 182 193 195 201 203 207 209 212 212 218 225 227 219 215 210 209 186 185 172 168 166 165 166 169 170 175 183 192
12 30 83 41 56 72 95 117 138 156 165 169 175 178 171 176 182 186 194 192 197 201 206 208 221 219 201 203 207 191 193 182 171 169 165 169 169 169 174 169 178 188 183
61 78 95 61 70 79 99 111 125 138 148 157 162 162 167 173 179 184 190 189 194 201 217 213 195 195 198 184 181 184 169 170 175 172 162 165 170 170 165 164 169 164 164
80 87 86 87 84 90 101 112 120 128 136 142 145 151 159 168 173 177 184 193 207 202 195 187 186 186 170 174 171 165 170 170 167 164 165 159 159 156 155 158 154 155 158
86 91 92 93 94 97 105 107 114 123 132 143 150 154 161 169 174 187 198 194 187 185 179 175 168 176 184 163 161 162 160 159 157 157 154 155 149 153 154 153 153 153 153
81 98 98 100 104 106 107 109 116 125 136 147 153 158 164 169 175 174 179 174 163 159 167 167 158 150 148 148 149 150 153 155 154 157 158 156 158 159 159 153 147 147 156
Wind_Speed_850mb
36 36 38 41 40 41 47 42 32 29 24 18 29 33 35 41 45 47 48 48 48 49 50 52 53 54 59 62 63 58 55 45 58 81 64 73 61 67 66 58 60 45 40
47 35 43 50 43 50 53 49 46 42 34 23 26 29 27 31 36 39 40 40 40 39 41 42 42 40 44 45 45 50 52 51 56 72 61 66 60 58 56 53 46 35 39
23 41 47 41 40 38 46 50 53 51 46 38 36 35 31 29 29 29 31 33 32 31 31 32 33 36 41 36 37 39 43 47 54 60 56 54 56 51 52 50 41 36 40
19 14 34 59 69 56 73 80 77 63 59 54 51 48 45 38 33 30 28 26 23 21 20 26 29 31 31 32 34 36 39 41 45 48 51 51 52 50 50 46 35 31 40
37 30 23 20 43 69 81 81 83 83 84 73 69 65 61 58 50 43 38 34 30 25 19 17 18 21 24 29 38 43 47 43 40 48 47 57 53 53 47 46 38 41 37
59 53 48 44 39 39 42 54 71 75 77 75 78 81 79 74 69 60 51 45 40 38 34 26 25 27 29 34 35 43 48 51 45 41 54 59 53 53 49 50 37 36 36
62 64 61 57 57 58 54 52 51 55 66 75 77 82 88 88 81 76 67 61 55 49 41 39 34 35 38 38 39 38 47 54 53 50 58 64 63 62 58 45 42 38 36
59 59 57 59 62 63 64 66 62 58 57 61 72 80 86 89 92 86 81 73 68 62 56 49 44 41 45 42 46 46 44 54 55 46 55 51 52 61 43 33 43 41 42
65 65 63 61 61 59 65 74 79 73 72 69 65 64 77 85 89 92 89 83 81 74 67 62 55 48 49 45 46 50 51 53 48 47 52 56 61 51 44 46 50 40 38
78 70 63 62 62 62 61 60 63 64 73 66 70 74 70 65 70 80 82 83 78 80 74 72 67 58 54 50 46 52 57 55 45 48 42 55 52 52 52 53 41 37 30
66 64 58 57 57 57 59 60 59 59 63 64 63 68 81 79 72 65 62 68 66 71 69 68 73 67 60 55 52 57 57 58 52 45 51 66 66 56 58 55 46 36 32
66 65 65 62 64 62 62 62 64 68 67 69 70 72 67 82 83 79 76 72 70 70 65 66 70 69 64 60 62 61 58 57 54 47 53 72 73 66 66 57 42 43 36
64 66 65 63 63 62 62 63 63 68 76 79 81 79 78 72 68 91 92 87 81 76 65 67 76 67 62 67 70 64 60 59 53 54 60 75 60 56 47 44 42 41 38
78 81 80 79 81 81 80 79 80 76 72 73 81 85 85 82 84 77 80 94 86 77 70 66 68 65 65 68 71 66 59 58 51 57 54 54 47 47 39 43 43 40 33
77 79 80 80 83 84 85 85 86 87 83 80 83 80 79 84 86 85 83 84 94 87 77 74 76 72 70 70 73 66 55 53 47 50 50 41 46 38 42 37 36 35 31
80 80 81 84 87 87 88 89 93 92 84 82 90 81 78 83 76 77 83 86 70 64 74 71 65 73 74 71 57 57 54 45 43 44 50 41 46 46 37 36 34 34 23
72 79 86 86 85 85 83 83 83 84 85 86 80 80 87 63 74 67 67 58 51 55 72 68 61 75 80 62 55 55 54 44 44 41 51 51 51 39 39 38 33 28 22
74 80 83 92 85 84 81 78 72 61 78 88 83 83 80 85 67 69 59 52 67 66 61 65 72 80 67 51 52 58 51 42 45 49 56 46 37 39 37 33 31 29 26
78 82 77 73 74 73 71 70 70 74 82 68 77 71 82 85 90 58 67 68 68 67 66 67 65 62 55 51 58 55 47 49 50 56 50 41 36 36 32 30 33 28 33
61 55 48 41 35 30 31 43 53 59 63 65 67 66 67 77 81 65 73 71 66 65 66 66 56 52 53 57 49 47 50 48 54 56 44 39 38 34 31 28 31 34 30
41 39 18 12 9 6 5 7 41 54 56 67 70 56 77 83 86 95 82 71 65 62 55 52 51 54 58 52 50 60 48 41 56 49 42 40 42 38 31 28 27 29 28
29 23 20 17 15 18 25 37 51 51 54 56 56 66 79 69 77 68 70 60 54 47 47 48 49 51 49 56 47 50 39 42 46 44 43 47 41 33 31 27 22 23 26
26 26 21 34 34 31 32 39 44 47 48 51 60 73 72 59 54 57 58 50 51 53 47 42 45 52 57 40 42 45 58 53 54 53 45 41 39 35 26 25 29 28 30
30 28 32 37 41 37 40 42 44 46 51 60 68 71 56 56 60 56 53 55 47 40 46 53 59 51 54 40 48 49 49 51 53 44 42 42 36 34 35 37 34 34 34
24 29 32 43 46 48 53 52 46 44 52 60 64 54 49 50 52 50 47 49 49 50 53 48 59 50 41 54 50 49 52 52 48 48 40 37 37 42 42 38 35 32 30
31 32 37 40 46 48 50 54 61 60 60 59 57 51 48 50 48 49 55 63 57 56 54 52 52 55 58 57 55 54 50 47 48 46 42 39 45 47 43 36 33 28 24
Wind_Direction_850mb
290 243 217 202 196 207 210 206 211 219 221 236 240 240 236 234 234 236 239 241 241 242 243 244 246 248 252 256 258 267 265 280 278 269 276 271 273 281 279 282 273 260 249
270 258 240 234 233 218 217 217 215 216 222 221 229 231 241 242 233 234 238 239 240 241 245 247 250 254 259 262 262 262 264 256 256 266 272 274 272 279 278 278 266 238 242
295 257 252 254 245 266 259 253 239 231 228 228 227 230 232 234 235 232 233 236 240 242 244 249 254 257 259 259 260 259 259 264 264 263 276 279 276 280 280 275 251 241 240
312 286 253 243 242 254 266 275 259 254 245 237 238 239 236 232 233 236 233 225 226 234 252 254 254 258 260 260 260 261 261 265 267 261 268 272 271 274 277 266 251 256 255
301 293 282 263 238 234 230 256 257 254 252 246 244 243 244 242 237 235 238 237 236 239 255 277 273 273 280 280 271 271 271 272 269 265 264 267 271 262 272 273 251 264 254
291 285 279 271 259 251 246 247 247 247 247 243 240 242 242 243 242 240 238 239 243 249 255 270 284 294 301 287 287 272 268 274 272 265 262 263 273 261 269 267 261 260 247
285 280 276 272 265 261 261 259 251 247 247 246 241 240 240 240 242 242 240 242 243 246 255 262 275 293 301 305 296 291 269 263 267 272 260 266 262 267 277 250 252 264 248
281 277 277 272 266 262 258 254 256 256 254 253 247 240 238 240 239 239 242 242 245 247 250 258 265 283 295 302 304 292 289 269 262 260 261 262 270 286 263 232 253 259 246
283 281 279 272 267 263 260 256 252 253 254 254 254 252 245 240 240 236 237 240 243 247 249 253 260 269 287 295 300 298 297 285 265 258 253 258 276 259 229 237 253 228 231
278 273 271 267 266 263 260 257 255 253 251 249 249 250 250 249 244 239 236 236 238 243 249 252 256 262 276 285 291 296 298 299 285 265 246 262 260 257 246 247 239 227 226
271 271 269 266 260 255 257 257 255 250 247 244 243 244 247 247 244 238 234 231 229 238 240 245 253 259 267 276 279 285 294 300 286 275 260 262 263 253 245 249 222 225 225
271 270 269 265 261 261 260 259 253 247 244 243 241 240 239 244 243 240 236 234 237 239 239 245 253 260 263 267 269 277 289 293 282 269 261 265 260 249 241 237 215 224 226
274 272 269 266 262 259 257 254 251 245 241 240 237 235 232 232 235 239 238 235 236 241 240 246 253 259 260 260 264 271 281 286 278 265 253 252 258 228 223 213 215 221 224
275 276 275 270 269 267 263 255 250 242 238 239 233 231 230 231 231 232 238 239 240 241 243 246 248 245 252 256 261 267 275 284 269 259 257 252 240 201 202 212 216 217 215
283 280 276 272 269 267 264 259 251 248 240 233 232 232 230 227 226 228 228 234 240 238 235 234 232 234 241 250 255 264 271 277 258 250 239 220 199 200 203 209 211 202 195
280 277 274 272 270 264 260 257 258 256 253 247 235 230 231 233 234 231 229 233 244 239 226 218 222 229 236 245 249 262 269 262 250 230 222 199 204 197 198 193 189 179 170
279 277 276 271 266 259 254 249 248 246 249 249 242 233 227 227 225 224 225 227 220 216 218 214 216 228 237 238 245 256 267 248 236 218 206 203 191 192 185 178 175 171 165
284 281 278 276 270 264 256 249 242 236 230 233 234 230 229 219 220 218 213 208 208 211 212 211 219 227 230 232 242 252 261 234 219 210 205 187 178 177 172 176 175 174 175
294 292 290 288 281 275 269 258 247 238 230 225 228 228 224 218 213 210 206 207 205 206 208 215 220 225 227 234 242 250 231 228 212 204 183 177 171 167 168 177 181 175 183
304 308 311 305 303 295 276 255 237 228 219 210 213 219 208 206 205 190 196 203 206 213 215 218 218 219 225 229 233 223 219 210 205 185 174 168 167 165 165 167 176 180 178
325 340 15 9 3 346 354 258 201 191 184 191 203 205 187 182 193 195 201 203 207 209 212 212 218 225 227 219 215 210 209 186 185 172 168 166 165 166 169 170 175 183 192
12 30 83 41 56 72 95 117 138 156 165 169 175 178 171 176 182 186 194 192 197 201 206 208 221 219 201 203 207 191 193 182 171 169 165 169 169 169 174 169 178 188 183
61 78 95 61 70 79 99 111 125 138 148 157 162 162 167 173 179 184 190 189 194 201 217 213 195 195 198 184 181 184 169 170 175 172 162 165 170 170 165 164 169 164 164
80 87 86 87 84 90 101 112 120 128 136 142 145 151 159 168 173 177 184 193 207 202 195 187 186 186 170 174 171 165 170 170 167 164 165 159 159 156 155 158 154 155 158
86 91 92 93 94 97 105 107 114 123 132 143 150 154 161 169 174 187 198 194 187 185 179 175 168 176 184 163 161 162 160 159 157 157 154 155 149 153 154 153 153 153 153
81 98 98 100 104 106 107 109 116 125 136 147 153 158 164 169 175 174 179 174 163 159 167 167 158 150 148 148 149 150 153 155 154 157 158 156 158 159 159 153 147 147 156